Weather History for Hot Springs, AR

Change the Weather History Date:

Friday, January 10, 2014

  Actual Average Record
Temperature  
Mean Temperature 46 °F -  
Max Temperature 57 °F 47 °F 76 °F (1949)
Min Temperature 36 °F 28 °F -1 °F (1962)
Degree Days  
Heating Degree Days 18    
Moisture  
Dew Point 48 °F    
Average Humidity 94    
Maximum Humidity 100    
Minimum Humidity 80    
Precipitation  
Precipitation 1.15 in - - ()
Sea Level Pressure  
Sea Level Pressure 29.88 in    
Wind  
Wind Speed 5 mph (ESE)    
Max Wind Speed 9 mph    
Max Gust Speed 17 mph    
Visibility 4 miles    
Events Fog , Rain , Thunderstorm    
Averages and records for this station are not official NWS values.
T = Trace of Precipitation, MM = Missing Value Source: NWS Daily Summary

Daily Weather History Graph

Daily Weather History Graph

Search for Another Location

Airport:

Trip Planner

Search our weather history database for the weather conditions in past years. The results will help you decide how hot, cold, wet, or windy it might be!

Date:

Astronomy

Jan. 10, 2014 Rise Set
Actual Time 7:19 AM CST 5:20 PM CST
Civil Twilight 6:52 AM CST 5:48 PM CST
Nautical Twilight 6:20 AM CST 6:19 PM CST
Astronomical Twilight 5:50 AM CST 6:49 PM CST
Moon 1:21 PM CST (1/10) 2:31 AM CST (1/10)
Length of Visible Light 10h 56m
Length of Day
10h 01m
Waxing Gibbous, 75% of the Moon is Illuminated
Jan 10
Waxing Gibbous
Jan 15
Full
Jan 23
Last Quarter
Jan 30
New
Feb 6
First Quarter

Hourly Weather History & Observations

Time (CST) Temp. Windchill Dew Point Humidity Pressure Visibility Wind Dir Wind Speed Gust Speed Precip Events Conditions
12:53 AM 36.0 °F 32.1 °F 35.1 °F 97% 30.12 in 5.0 mi East 4.6 mph - 0.00 in   Overcast
1:11 AM 37.4 °F 33.8 °F 35.6 °F 93% 30.10 in 6.0 mi East 4.6 mph - N/A   Overcast
1:42 AM 37.4 °F 32.1 °F 35.6 °F 93% 30.09 in 6.0 mi East 6.9 mph - N/A   Overcast
1:53 AM 37.0 °F 32.4 °F 36.0 °F 96% 30.10 in 6.0 mi East 5.8 mph - N/A   Overcast
2:15 AM 37.4 °F 33.8 °F 35.6 °F 93% 30.08 in 6.0 mi East 4.6 mph - N/A   Overcast
2:27 AM 37.4 °F 32.8 °F 35.6 °F 93% 30.08 in 5.0 mi East 5.8 mph - N/A   Overcast
2:39 AM 39.2 °F 33.6 °F 37.4 °F 93% 30.07 in 3.0 mi East 8.1 mph - 0.00 in Rain Light Rain
2:53 AM 39.0 °F 34.8 °F 37.0 °F 93% 30.08 in 5.0 mi East 5.8 mph - 0.00 in Rain Light Rain
3:00 AM 39.2 °F 35.0 °F 37.4 °F 93% 30.07 in 6.0 mi East 5.8 mph - 0.00 in   Overcast
3:24 AM 39.2 °F 34.2 °F 37.4 °F 93% 30.06 in 3.0 mi East 6.9 mph - 0.00 in Rain Light Rain
3:53 AM 39.0 °F 33.4 °F 37.0 °F 93% 30.05 in 5.0 mi East 8.1 mph - 0.00 in Rain Light Rain
4:41 AM 39.2 °F 33.6 °F 37.4 °F 93% 30.03 in 5.0 mi East 8.1 mph - 0.00 in   Overcast
4:53 AM 39.9 °F 35.1 °F 37.9 °F 93% 30.04 in 5.0 mi East 6.9 mph - 0.00 in   Overcast
5:46 AM 44.6 °F 40.7 °F 42.8 °F 93% 30.01 in 2.5 mi SSE 6.9 mph - 0.03 in Rain Rain
5:53 AM 46.0 °F 41.4 °F 44.1 °F 93% 30.01 in 2.5 mi SSE 9.2 mph - 0.06 in Rain Rain
5:55 AM 46.4 °F 42.9 °F 44.6 °F 93% 30.01 in 3.0 mi SSE 6.9 mph - 0.00 in Rain Light Rain
6:53 AM 48.0 °F - 46.0 °F 93% 30.00 in 7.0 mi SSE 9.2 mph - 0.02 in Rain Light Rain
7:42 AM 48.2 °F - 48.2 °F 100% 30.00 in 2.5 mi SE 8.1 mph - 0.11 in Rain Heavy Rain
7:51 AM 48.2 °F - 48.2 °F 100% 30.00 in 3.0 mi East 5.8 mph - 0.13 in Rain Rain
7:53 AM 50.0 °F - 48.0 °F 93% 30.00 in 3.0 mi East 5.8 mph - 0.14 in Rain Rain
8:50 AM 50.0 °F - 48.2 °F 94% 29.97 in 5.0 mi East 6.9 mph - 0.04 in   Overcast
8:53 AM 50.0 °F - 48.0 °F 93% 29.97 in 5.0 mi East 6.9 mph - 0.04 in   Overcast
9:22 AM 50.0 °F - 48.2 °F 94% 29.97 in 2.0 mi ENE 4.6 mph - N/A   Overcast
9:32 AM 50.0 °F - 48.2 °F 94% 29.96 in 1.5 mi ENE 3.5 mph - N/A   Overcast
9:51 AM 50.0 °F - 48.2 °F 94% 29.96 in 0.5 mi ENE 4.6 mph - N/A Fog Fog
9:53 AM 50.0 °F - 48.9 °F 96% 29.96 in 0.5 mi ENE 3.5 mph - N/A Fog Fog
10:19 AM 51.8 °F - 50.0 °F 94% 29.95 in 0.2 mi Variable 3.5 mph - N/A Fog Fog
10:48 AM 51.8 °F - 50.0 °F 94% 29.93 in 0.5 mi SE 4.6 mph - N/A Fog Fog
10:53 AM 52.0 °F - 50.0 °F 93% 29.93 in 0.5 mi SE 3.5 mph - N/A Fog Fog
11:22 AM 51.8 °F - 50.0 °F 94% 29.93 in 1.2 mi SSW 3.5 mph - 0.02 in Rain Light Rain
11:53 AM 51.1 °F - 50.0 °F 96% 29.88 in 1.5 mi ESE 3.5 mph - 0.10 in Rain Rain
12:04 PM 51.8 °F - 50.0 °F 94% 29.88 in 2.0 mi ESE 4.6 mph - 0.03 in Rain Rain
12:53 PM 51.1 °F - 50.0 °F 96% 29.83 in 3.0 mi East 5.8 mph - 0.12 in Rain Rain
1:28 PM 51.8 °F - 50.0 °F 94% 29.80 in 2.0 mi East 5.8 mph - 0.09 in Rain Heavy Rain
1:46 PM 51.8 °F - 51.8 °F 100% 29.77 in 4.0 mi East 5.8 mph - 0.13 in Rain Rain
1:53 PM 52.0 °F - 51.1 °F 97% 29.79 in 4.0 mi East 3.5 mph - 0.14 in Rain Rain
2:06 PM 51.8 °F - 51.8 °F 100% 29.78 in 2.5 mi ESE 4.6 mph - 0.03 in Rain Rain
2:14 PM 51.8 °F - 51.8 °F 100% 29.77 in 3.0 mi ESE 4.6 mph - 0.04 in Rain Rain
2:53 PM 54.0 °F - 52.0 °F 93% 29.74 in 3.0 mi SE 5.8 mph - 0.07 in Rain Light Rain
3:34 PM 55.4 °F - 53.6 °F 94% 29.72 in 2.0 mi Calm Calm - 0.02 in Rain Light Rain
3:53 PM 55.0 °F - 54.0 °F 96% 29.73 in 2.5 mi WSW 3.5 mph - 0.05 in Rain Rain
4:06 PM 55.4 °F - 53.6 °F 94% 29.73 in 1.8 mi South 3.5 mph - 0.05 in Rain Heavy Rain
4:11 PM 55.4 °F - 53.6 °F 94% 29.74 in 2.0 mi SW 5.8 mph - 0.07 in Rain Heavy Rain
4:49 PM 57.2 °F - 55.4 °F 94% 29.74 in 5.0 mi Calm Calm - 0.16 in Rain Light Rain
4:53 PM 57.0 °F - 55.0 °F 93% 29.74 in 5.0 mi Calm Calm - 0.16 in Rain Light Rain
5:25 PM 55.4 °F - 53.6 °F 94% 29.73 in 4.0 mi Calm Calm - 0.09 in Rain Rain
5:53 PM 55.0 °F - 53.1 °F 93% 29.70 in 6.0 mi East 5.8 mph - 0.10 in   Overcast
6:07 PM 55.4 °F - 55.4 °F 100% 29.69 in 7.0 mi SE 4.6 mph - N/A   Overcast
6:24 PM 57.2 °F - 55.4 °F 94% 29.69 in 10.0 mi ESE 5.8 mph - 0.00 in Rain Light Rain
6:53 PM 57.0 °F - 55.0 °F 93% 29.70 in 10.0 mi Variable 4.6 mph - 0.00 in   Overcast
7:53 PM 57.9 °F - 55.9 °F 93% 29.68 in 10.0 mi South 8.1 mph - 0.00 in   Overcast
8:34 PM 57.2 °F - 57.2 °F 100% 29.70 in 2.5 mi Variable 5.8 mph 17.3 mph 0.07 in Rain , Thunderstorm Heavy Thunderstorms and Rain
8:45 PM 57.2 °F - 55.4 °F 94% 29.70 in 3.0 mi SW 8.1 mph - 0.13 in Rain , Thunderstorm Heavy Thunderstorms and Rain
8:53 PM 57.9 °F - 57.0 °F 97% 29.69 in 5.0 mi Calm Calm - 0.14 in Rain Light Rain
9:13 PM 57.2 °F - 55.4 °F 94% 29.70 in 10.0 mi WSW 4.6 mph - 0.00 in   Overcast
9:48 PM 57.2 °F - 55.4 °F 94% 29.72 in 10.0 mi NW 5.8 mph - 0.00 in   Overcast
9:53 PM 57.9 °F - 55.9 °F 93% 29.72 in 10.0 mi WNW 5.8 mph - 0.00 in   Overcast
10:03 PM 57.2 °F - 55.4 °F 94% 29.72 in 10.0 mi WNW 6.9 mph - 0.00 in Rain Light Rain
10:53 PM 54.0 °F - 48.0 °F 80% 29.74 in 10.0 mi Variable 4.6 mph - 0.01 in   Overcast
11:53 PM 52.0 °F - 46.0 °F 80% 29.76 in 10.0 mi West 3.5 mph - N/A   Mostly Cloudy